Regional Weather Roundup
Issued by NWS Mt. Holly, NJ

Home | Current Version | Previous Version | Text Only | Print | Product List | Glossary On
Versions: 1 2 3 4 5 6 7 8 9 10 11 12 13 14 15 16 17 18 19 20 21 22 23 24 25 26 27 28 29 30 31 32 33 34 35 36 37 38 39 40 41 42 43 44 45 46 47 48 49 50
000
ASUS41 KPHI 270512
RWRPHI

REGIONAL WEATHER ROUNDUP
NATIONAL WEATHER SERVICE MOUNT HOLLY NJ
100 AM EDT MON JUN 27 2016

NOTE:  "FAIR" INDICATES FEW OR NO CLOUDS BELOW 12,000 FEET WITH NO
SIGNIFICANT WEATHER AND/OR OBSTRUCTIONS TO VISIBILITY.

 * = STATION DOES NOT REPORT PRECIPITATION (E.G. RAIN, SNOW, ETC.)
        OR FOG.

NJZ015>026-270600-
SOUTHERN NEW JERSEY

CITY           SKY/WX    TMP DP  RH WIND       PRES   REMARKS
POMONA         CLEAR     57  53  86 CALM      30.16S
WILDWOOD*      CLEAR     63  61  94 CALM      30.18R
MILLVILLE      PTCLDY    55  53  93 W3        30.16S
WRIGHTSTOWN    CLEAR     60  54  81 SW5       30.14R
MOUNT HOLLY    CLEAR     61  53  75 CALM      30.15S
TRENTON        CLEAR     66  53  63 SW3       30.14S

$$
NJZ001>014-270600-
NORTHERN NEW JERSEY

CITY           SKY/WX    TMP DP  RH WIND       PRES   REMARKS
SUSSEX         PTCLDY    63  55  75 CALM      30.13S
ANDOVER*         N/A     64  56  75 CALM      30.14S
MORRISTOWN     CLEAR     61  52  72 CALM      30.13S
NEWARK         PTCLDY    70  49  47 SW8       30.13S
TETERBORO      CLEAR     71  49  45 S5        30.12S
CALDWELL       CLEAR     70  51  51 CALM      30.13S
SOMERVILLE     CLEAR     61  54  77 CALM      30.12S
ALLAIRE*       CLEAR     64  57  77 S6        30.16S

$$
PAZ043-044-047-054-055-060>062-066>071-270600-
EASTERN PENNSYLVANIA

CITY           SKY/WX    TMP DP  RH WIND       PRES   REMARKS
PHILADELPHIA   CLEAR     67  60  78 SW7       30.16S
NORTH PHILA    CLEAR     69  57  65 SW6       30.16S
BLUE BELL*     CLEAR     64  54  68 S3        30.15S
DOYLESTOWN     CLEAR     66  48  52 VRB5      30.14S
QUAKERTOWN*    CLEAR     61  54  77 CALM      30.16S
PERKASIE*      FAIR      64  46  52 CALM      30.16S
POTTSTOWN      CLEAR     64  50  60 CALM      30.17R
LANCASTER      CLEAR     65  53  65 E3        30.14S
COATESVILLE    PTCLDY    61  52  72 CALM      30.18R
READING        CLEAR     68  49  50 S3        30.13S
ALLENTOWN      PTCLDY    65  49  56 SW6       30.14R
MOUNT POCONO     N/A     63  53  70 S6        30.17F
HAZLETON       CLEAR     68  50  52 S3        30.18F
LEHIGHTON      FAIR      59  57  94 CALM      30.15S
WILKES BARRE   PTCLDY    71  55  56 VRB6      30.12F

$$
DEZALL-MDZ008-012-015-019-020-270600-
DELAWARE AND EASTERN MARYLAND

CITY           SKY/WX    TMP DP  RH WIND       PRES   REMARKS
WILMINGTON     CLEAR     65  57  75 S5        30.15F
DOVER          CLEAR     64  64 100 SW2       30.16R
GEORGETOWN     CLEAR     62  60  93 CALM      30.17S
EASTON         CLEAR     65  64  96 CALM      30.20S
PATUXENT       PTCLDY    65  60  84 CALM      30.16S
OCEAN CITY     CLOUDY    68  66  93 CALM      30.16S
WALLOPS ISLAND CLOUDY    71  67  87 CALM      30.17R
CAMBRIDGE      CLEAR     61  59  94 CALM      30.16F
SALISBURY      PTCLDY    62  60  93 CALM      30.17R

$$
PAZ001-021-NYZ056-072-MDZ011-DCZ001-270600-
OTHER NEARBY LOCATIONS

CITY           SKY/WX    TMP DP  RH WIND       PRES   REMARKS
HARRISBURG     PTCLDY    72  57  59 S7        30.11F
STATE COLLEGE  PTCLDY    70  58  66 SW6       30.11F
WILLIAMSPORT   CLOUDY    76  54  46 CALM      30.09R
BINGHAMTON     CLEAR     68  56  65 S9        30.11S
NEW YORK CITY  CLEAR     72  49  44 VRB6      30.16S
BALTIMORE      PTCLDY    67  60  78 CALM      30.15S
WASHINGTON DC  FAIR      71  63  75 S8        30.16R

$$



USA.gov is the U.S. government's official web portal to all federal, state and local government web resources and services.